Location: El Mouella
(16.4949°N, 9.1594°W)
Time: 02:05:48
(UTC+00:00)

H-2A R/B - Pass Details

Date: 24 September 2020
Orbit: 734 x 836 km, 98.2° (Epoch: 20 October)

Event Time Altitude Azimuth Distance (km) Brightness Sun altitude
Exits shadow 19:22:40 13° 126° (SE) 2,014 3.7 -13.3°
Maximum altitude 19:26:05 27° 74° (ENE) 1,391 2.8 -14.1°
Drops below altitude 10° 19:30:16 10° 17° (NNE) 2,274 4.3 -15.1°
Sets 19:32:52 0° 6° (N) 3,214 5.2 -15.7°
